KAL940 RKSI-RKPC

Flight info

Callsign KAL940
Flight time N/A
Altitude 36000
Route BOPTA3C BOPTA Z51 BEDES Y711 DOTOL DOTOL2P
Aircraft B738/M-SABDFGRVYL/LB2

Departure

Time 2026-05-05 03:06
Airport Incheon International Airport (RKSI)

Arrival

Time N/A
Airport Jeju International Airport (RKPC)
Time Latitude Longitude Altitude Speed Heading
2026-05-05 02:05 37.46164 126.43330 30 ft 0 kts 22°
2026-05-05 02:51 37.46156 126.43326 29 ft 2 kts 22°
2026-05-05 02:51 37.46143 126.43318 28 ft 2 kts 22°
2026-05-05 02:51 37.46130 126.43311 29 ft 2 kts 22°
2026-05-05 02:51 37.46116 126.43304 29 ft 2 kts 22°
2026-05-05 02:52 37.46102 126.43297 29 ft 2 kts 22°
2026-05-05 02:52 37.46089 126.43290 29 ft 2 kts 22°
2026-05-05 02:52 37.46081 126.43285 29 ft 1 kts 23°
2026-05-05 02:52 37.46067 126.43281 29 ft 2 kts
2026-05-05 02:53 37.46052 126.43282 29 ft 2 kts 344°
2026-05-05 02:53 37.46038 126.43289 29 ft 2 kts 327°
2026-05-05 02:53 37.46027 126.43301 28 ft 2 kts 309°
2026-05-05 02:53 37.46019 126.43317 28 ft 2 kts 291°
2026-05-05 02:54 37.46016 126.43334 29 ft 2 kts 274°
2026-05-05 02:54 37.46017 126.43353 29 ft 2 kts 256°
2026-05-05 02:54 37.46022 126.43370 29 ft 1 kts 238°
2026-05-05 02:54 37.46026 126.43376 29 ft 1 kts 233°
2026-05-05 02:55 37.46027 126.43378 29 ft 0 kts 234°
2026-05-05 02:57 37.46015 126.43357 28 ft 5 kts 234°
2026-05-05 02:57 37.45987 126.43309 29 ft 8 kts 234°
2026-05-05 02:57 37.45948 126.43238 28 ft 10 kts 236°
2026-05-05 02:58 37.45940 126.43160 28 ft 9 kts 305°
2026-05-05 02:58 37.45992 126.43111 28 ft 10 kts 327°
2026-05-05 02:58 37.46078 126.43037 28 ft 18 kts 324°
2026-05-05 02:58 37.46182 126.42944 28 ft 18 kts 324°
2026-05-05 02:59 37.46285 126.42851 28 ft 18 kts 324°
2026-05-05 02:59 37.46387 126.42762 28 ft 17 kts 324°
2026-05-05 02:59 37.46488 126.42672 28 ft 17 kts 325°
2026-05-05 02:59 37.46586 126.42586 28 ft 17 kts 324°
2026-05-05 03:00 37.46684 126.42497 28 ft 17 kts 324°
2026-05-05 03:00 37.46780 126.42412 28 ft 16 kts 324°
2026-05-05 03:00 37.46874 126.42329 28 ft 16 kts 324°
2026-05-05 03:00 37.46968 126.42245 28 ft 16 kts 324°
2026-05-05 03:01 37.47059 126.42164 28 ft 16 kts 325°
2026-05-05 03:01 37.47152 126.42082 29 ft 15 kts 324°
2026-05-05 03:01 37.47239 126.42004 28 ft 15 kts 326°
2026-05-05 03:01 37.47326 126.41927 28 ft 14 kts 324°
2026-05-05 03:02 37.47395 126.41864 28 ft 8 kts 315°
2026-05-05 03:02 37.47405 126.41804 28 ft 6 kts 242°
2026-05-05 03:02 37.47379 126.41759 28 ft 6 kts 234°
2026-05-05 03:02 37.47361 126.41727 28 ft 0 kts 234°
2026-05-05 03:03 37.47360 126.41724 28 ft 1 kts 234°
2026-05-05 03:04 37.47353 126.41712 28 ft 1 kts 234°
2026-05-05 03:04 37.47339 126.41688 28 ft 5 kts 234°
2026-05-05 03:04 37.47301 126.41621 28 ft 12 kts 233°
2026-05-05 03:04 37.47227 126.41597 28 ft 12 kts 148°
2026-05-05 03:05 37.47149 126.41666 28 ft 19 kts 145°
2026-05-05 03:05 37.46874 126.41911 29 ft 79 kts 144°
2026-05-05 03:05 37.46267 126.42451 29 ft 131 kts 146°
2026-05-05 03:05 37.45416 126.43216 137 ft 160 kts 145°
2026-05-05 03:06 37.44510 126.43989 691 ft 158 kts 149°
2026-05-05 03:06 37.43554 126.44675 1211 ft 161 kts 152°
2026-05-05 03:06 37.42565 126.45383 1592 ft 173 kts 150°
2026-05-05 03:06 37.41494 126.46193 2012 ft 186 kts 149°
2026-05-05 03:07 37.40347 126.47067 2356 ft 204 kts 149°
2026-05-05 03:07 37.39034 126.48055 2560 ft 228 kts 150°
2026-05-05 03:07 37.37577 126.48898 2757 ft 235 kts 162°
2026-05-05 03:07 37.35950 126.49456 2798 ft 248 kts 167°
2026-05-05 03:08 37.34253 126.49954 3002 ft 253 kts 167°
2026-05-05 03:08 37.32530 126.50487 3312 ft 263 kts 166°
2026-05-05 03:08 37.30750 126.51079 4145 ft 262 kts 166°
2026-05-05 03:08 37.28996 126.51674 4885 ft 264 kts 165°
2026-05-05 03:09 37.27265 126.52432 5584 ft 269 kts 157°
2026-05-05 03:09 37.25588 126.53499 6267 ft 273 kts 152°
2026-05-05 03:09 37.23922 126.54677 6939 ft 276 kts 152°
2026-05-05 03:09 37.22270 126.55848 7606 ft 280 kts 152°
2026-05-05 03:10 37.20566 126.57024 8298 ft 283 kts 153°
2026-05-05 03:10 37.18747 126.57955 8996 ft 284 kts 171°
2026-05-05 03:10 37.16792 126.58162 9727 ft 285 kts 181°
2026-05-05 03:10 37.14793 126.58141 10460 ft 289 kts 182°
2026-05-05 03:11 37.12782 126.58160 11181 ft 294 kts 180°
2026-05-05 03:11 37.10733 126.58269 11921 ft 298 kts 178°
2026-05-05 03:11 37.08647 126.58438 12678 ft 302 kts 177°
2026-05-05 03:11 37.06549 126.58631 13427 ft 306 kts 176°
2026-05-05 03:12 37.04449 126.58830 14168 ft 309 kts 176°
2026-05-05 03:12 37.02277 126.59034 14941 ft 313 kts 176°
2026-05-05 03:12 37.00135 126.59232 15697 ft 316 kts 176°
2026-05-05 03:12 36.97934 126.59431 16448 ft 319 kts 176°
2026-05-05 03:13 36.95703 126.59631 17189 ft 322 kts 176°
2026-05-05 03:13 36.93461 126.59832 17913 ft 325 kts 176°